Weather History for Al Hoceima, Morocco

Change the Weather History Date:

Wednesday, March 12, 2014

  Actual Average Record
Temperature  
Mean Temperature 55 °F -  
Max Temperature 65 °F 64 °F 69 °F (1997)
Min Temperature 45 °F 50 °F 37 °F (1999)
Degree Days  
Heating Degree Days 10    
Growing Degree Days 5 (Base 50)    
Moisture  
Dew Point 47 °F    
Average Humidity 64    
Maximum Humidity 82    
Minimum Humidity 46    
Precipitation  
Precipitation 0.01 in - - ()
Sea Level Pressure  
Sea Level Pressure 30.15 in    
Wind  
Wind Speed 7 mph ()    
Max Wind Speed 18 mph    
Max Gust Speed -    
Visibility 5.1 miles    
Events Rain    
Averages and records for this station are not official NWS values.
T = Trace of Precipitation, MM = Missing Value Source: Averaged Metar Reports

Daily Weather History Graph

Daily Weather History Graph

Search for Another Location

Airport:

Trip Planner

Search our weather history database for the weather conditions in past years. The results will help you decide how hot, cold, wet, or windy it might be!

Date:

Astronomy

Mar. 12, 2014 Rise Set
Actual Time 6:30 AM WET 6:20 PM WET
Civil Twilight 6:05 AM WET 6:45 PM WET
Nautical Twilight 5:35 AM WET 7:14 PM WET
Astronomical Twilight 5:06 AM WET 7:44 PM WET
Moon 2:44 PM WET (3/12) 3:46 AM WET (3/12)
Length of Visible Light 12h 40m
Length of Day
11h 49m
Waxing Gibbous, 84% of the Moon is Illuminated
Mar 12
Waxing Gibbous
Mar 16
Full
Mar 24
Last Quarter
Mar 30
New
Apr 7
First Quarter

Hourly Weather History & Observations

Time (WET) Temp. Dew Point Humidity Pressure Visibility Wind Dir Wind Speed Gust Speed Precip Events Conditions
12:00 AM 55 °F 45 °F 60% 30.14 in 6 mi East 6.9 mph - -   Partly Cloudy
12:00 AM 55.4 °F 44.6 °F 67% 30.12 in 6.2 mi East 6.9 mph - N/A   Partly Cloudy
6:00 AM 50 °F 43 °F 70% 30.15 in 6 mi South 2.3 mph - -   Mostly Cloudy
6:00 AM 50.0 °F 42.8 °F 76% 30.12 in 6.2 mi South 2.3 mph - N/A   Mostly Cloudy
7:00 AM 51.8 °F 44.6 °F 76% 30.15 in 5.0 mi West 2.3 mph - N/A   Mostly Cloudy
8:00 AM 55.4 °F 48.2 °F 77% 30.15 in 5.0 mi Calm Calm - N/A   Mostly Cloudy
9:00 AM 62 °F 49 °F 54% 30.18 in 5 mi East 6.9 mph - -   Mostly Cloudy
9:00 AM 62.6 °F 50.0 °F 63% 30.15 in 5.0 mi East 6.9 mph - N/A   Mostly Cloudy
10:00 AM 60.8 °F 46.4 °F 59% 30.18 in 5.0 mi East 16.1 mph - N/A   Mostly Cloudy
11:00 AM 62.6 °F 48.2 °F 59% 30.18 in 5.0 mi East 11.5 mph - N/A   Mostly Cloudy
12:00 PM 63 °F 47 °F 46% 30.16 in 5 mi East 18.4 mph - -   Mostly Cloudy
12:00 PM 62.6 °F 48.2 °F 59% 30.15 in 5.0 mi East 18.4 mph - N/A   Mostly Cloudy
1:00 PM 62.6 °F 48.2 °F 59% 30.15 in 3.7 mi ENE 18.4 mph - N/A Rain Light Rain
2:00 PM 59.0 °F 48.2 °F 67% 30.12 in 5.0 mi East 9.2 mph - N/A   Mostly Cloudy
3:00 PM 60 °F 48 °F 55% 30.13 in 5 mi ENE 13.8 mph - - Rain Light Rain
3:00 PM 60.8 °F 48.2 °F 63% 30.12 in 5.0 mi ENE 13.8 mph - N/A   Mostly Cloudy
4:00 PM 60.8 °F 48.2 °F 63% 30.12 in 5.0 mi ENE 16.1 mph - N/A   Mostly Cloudy
5:00 PM 60.8 °F 48.2 °F 63% 30.12 in 3.7 mi ENE 16.1 mph - N/A Rain Light Rain
6:00 PM 58 °F 48 °F 60% 30.15 in 4 mi East 11.5 mph - -   Partly Cloudy
6:00 PM 59.0 °F 48.2 °F 67% 30.15 in 3.7 mi East 11.5 mph - N/A   Mostly Cloudy
7:00 PM 57.2 °F 46.4 °F 67% 30.15 in 3.7 mi ENE 11.5 mph - N/A   Mostly Cloudy
8:00 PM 57.2 °F 48.2 °F 72% 30.18 in 5.0 mi ESE 9.2 mph - N/A   Mostly Cloudy
9:00 PM 57 °F 46 °F 58% 30.21 in 6 mi East 2.3 mph - -   Partly Cloudy
9:00 PM 57.2 °F 46.4 °F 67% 30.18 in 6.2 mi East 2.3 mph - N/A   Scattered Clouds
10:00 PM 57.2 °F 46.4 °F 67% 30.21 in 6.2 mi ESE 4.6 mph - N/A   Scattered Clouds
11:00 PM 57.2 °F 51.8 °F 82% 30.21 in 6.2 mi East 4.6 mph - N/A   Scattered Clouds